owner,sensor,date,latitude,longitude,air_pressure(mBar),qcFlag 
TABS,ioos:station:wmo:42046:1,2003-04-01T00:09:00Z,27.8903,-94.0367,972.97,11133222 
TABS,ioos:station:wmo:42046:1,2003-04-01T00:39:00Z,27.8903,-94.0367,963.52,11133222 
TABS,ioos:station:wmo:42046:1,2003-04-01T01:09:00Z,27.8903,-94.0367,959.83,11133222 
TABS,ioos:station:wmo:42046:1,2003-04-01T01:39:00Z,27.8903,-94.0367,959.07,11133222 
TABS,ioos:station:wmo:42046:1,2003-04-01T02:09:00Z,27.8903,-94.0367,958.82,11133222 
TABS,ioos:station:wmo:42046:1,2003-04-01T02:39:00Z,27.8903,-94.0367,959.26,11133222 
TABS,ioos:station:wmo:42046:1,2003-04-01T03:09:00Z,27.8903,-94.0367,959.64,11133222 
TABS,ioos:station:wmo:42046:1,2003-04-01T03:39:00Z,27.8903,-94.0367,959.77,11133222 
TABS,ioos:station:wmo:42046:1,2003-04-01T04:09:00Z,27.8903,-94.0367,960.09,11133222 
TABS,ioos:station:wmo:42046:1,2003-04-01T04:39:00Z,27.8903,-94.0367,960.15,11133222 
TABS,ioos:station:wmo:42046:1,2003-04-01T05:09:00Z,27.8903,-94.0367,960.6,11133222 
TABS,ioos:station:wmo:42046:1,2003-04-01T05:39:00Z,27.8903,-94.0367,960.6,11133222 
TABS,ioos:station:wmo:42046:1,2003-04-01T06:09:00Z,27.8903,-94.0367,960.6,11133222 
TABS,ioos:station:wmo:42046:1,2003-04-01T06:39:00Z,27.8903,-94.0367,960.72,11133222 
TABS,ioos:station:wmo:42046:1,2003-04-01T07:09:00Z,27.8903,-94.0367,960.6,11133222 
TABS,ioos:station:wmo:42046:1,2003-04-01T07:39:00Z,27.8903,-94.0367,960.72,11133222 
TABS,ioos:station:wmo:42046:1,2003-04-01T08:09:00Z,27.8903,-94.0367,960.66,11133222 
TABS,ioos:station:wmo:42046:1,2003-04-01T08:39:00Z,27.8903,-94.0367,960.6,11133222 
TABS,ioos:station:wmo:42046:1,2003-04-01T09:09:00Z,27.8903,-94.0367,960.66,11133222 
TABS,ioos:station:wmo:42046:1,2003-04-01T09:39:00Z,27.8903,-94.0367,960.72,11133222 
TABS,ioos:station:wmo:42046:1,2003-04-01T10:09:00Z,27.8903,-94.0367,960.66,11133222 
TABS,ioos:station:wmo:42046:1,2003-04-01T10:39:00Z,27.8903,-94.0367,960.6,11133222 
TABS,ioos:station:wmo:42046:1,2003-04-01T11:09:00Z,27.8903,-94.0367,960.53,11133222 
TABS,ioos:station:wmo:42046:1,2003-04-01T11:39:00Z,27.8903,-94.0367,960.53,11133222 
TABS,ioos:station:wmo:42046:1,2003-04-01T12:09:00Z,27.8903,-94.0367,960.79,11133222 
TABS,ioos:station:wmo:42046:1,2003-04-01T12:39:00Z,27.8903,-94.0367,966.44,11133222 
TABS,ioos:station:wmo:42046:1,2003-04-01T13:09:00Z,27.8903,-94.0367,975.51,11133222 
TABS,ioos:station:wmo:42046:1,2003-04-01T13:39:00Z,27.8903,-94.0367,979.26,11133222 
TABS,ioos:station:wmo:42046:1,2003-04-01T14:09:00Z,27.8903,-94.0367,988.14,11111222 
TABS,ioos:station:wmo:42046:1,2003-04-01T14:39:00Z,27.8903,-94.0367,984.08,11111222 
TABS,ioos:station:wmo:42046:1,2003-04-01T15:39:00Z,27.8903,-94.0367,989.22,11111222 
TABS,ioos:station:wmo:42046:1,2003-04-01T16:09:00Z,27.8903,-94.0367,989.41,11111222 
TABS,ioos:station:wmo:42046:1,2003-04-01T16:39:00Z,27.8903,-94.0367,990.37,11111222 
TABS,ioos:station:wmo:42046:1,2003-04-01T17:09:00Z,27.8903,-94.0367,988.91,11111222 
TABS,ioos:station:wmo:42046:1,2003-04-01T17:39:00Z,27.8903,-94.0367,989.73,11111222 
TABS,ioos:station:wmo:42046:1,2003-04-01T18:39:00Z,27.8903,-94.0367,989.29,11111222 
TABS,ioos:station:wmo:42046:1,2003-04-01T19:09:00Z,27.8903,-94.0367,989.35,11111222 
TABS,ioos:station:wmo:42046:1,2003-04-01T19:39:00Z,27.8903,-94.0367,988.91,11111222 
TABS,ioos:station:wmo:42046:1,2003-04-01T20:09:00Z,27.8903,-94.0367,988.08,11111222 
TABS,ioos:station:wmo:42046:1,2003-04-01T20:39:00Z,27.8903,-94.0367,984.4,11111222 
TABS,ioos:station:wmo:42046:1,2003-04-01T21:09:00Z,27.8903,-94.0367,987.89,11111222 
TABS,ioos:station:wmo:42046:1,2003-04-01T21:39:00Z,27.8903,-94.0367,984.21,11111222 
TABS,ioos:station:wmo:42046:1,2003-04-01T22:09:00Z,27.8903,-94.0367,980.4,11111222 
TABS,ioos:station:wmo:42046:1,2003-04-01T22:39:00Z,27.8903,-94.0367,976.53,11133222 
TABS,ioos:station:wmo:42046:1,2003-04-01T23:09:00Z,27.8903,-94.0367,978.56,11133222 
TABS,ioos:station:wmo:42046:1,2003-04-01T23:39:00Z,27.8903,-94.0367,975.51,11133222 
TABS,ioos:station:wmo:42046:1,2003-04-02T00:09:00Z,27.8903,-94.0367,973.29,11133222 
TABS,ioos:station:wmo:42046:1,2003-04-02T00:39:00Z,27.8903,-94.0367,968.66,11133222 
TABS,ioos:station:wmo:42046:1,2003-04-02T01:09:00Z,27.8903,-94.0367,967.64,11133222 
TABS,ioos:station:wmo:42046:1,2003-04-02T01:39:00Z,27.8903,-94.0367,967.9,11133222 
TABS,ioos:station:wmo:42046:1,2003-04-02T02:09:00Z,27.8903,-94.0367,968.53,11133222 
TABS,ioos:station:wmo:42046:1,2003-04-02T02:39:00Z,27.8903,-94.0367,968.59,11133222 
TABS,ioos:station:wmo:42046:1,2003-04-02T03:09:00Z,27.8903,-94.0367,968.28,11133222 
TABS,ioos:station:wmo:42046:1,2003-04-02T03:39:00Z,27.8903,-94.0367,968.15,11133222 
TABS,ioos:station:wmo:42046:1,2003-04-02T04:09:00Z,27.8903,-94.0367,968.66,11133222 
TABS,ioos:station:wmo:42046:1,2003-04-02T04:39:00Z,27.8903,-94.0367,969.1,11133222 
TABS,ioos:station:wmo:42046:1,2003-04-02T05:09:00Z,27.8903,-94.0367,969.23,11133222 
TABS,ioos:station:wmo:42046:1,2003-04-02T05:39:00Z,27.8903,-94.0367,969.74,11133222 
TABS,ioos:station:wmo:42046:1,2003-04-02T06:09:00Z,27.8903,-94.0367,969.74,11133222 
TABS,ioos:station:wmo:42046:1,2003-04-02T06:39:00Z,27.8903,-94.0367,969.48,11133222 
TABS,ioos:station:wmo:42046:1,2003-04-02T07:09:00Z,27.8903,-94.0367,969.61,11133222 
TABS,ioos:station:wmo:42046:1,2003-04-02T07:39:00Z,27.8903,-94.0367,969.36,11133222 
TABS,ioos:station:wmo:42046:1,2003-04-02T08:09:00Z,27.8903,-94.0367,970.05,11133222 
TABS,ioos:station:wmo:42046:1,2003-04-02T08:39:00Z,27.8903,-94.0367,970.05,11133222 
TABS,ioos:station:wmo:42046:1,2003-04-02T09:09:00Z,27.8903,-94.0367,969.74,11133222 
TABS,ioos:station:wmo:42046:1,2003-04-02T09:39:00Z,27.8903,-94.0367,969.61,11133222 
TABS,ioos:station:wmo:42046:1,2003-04-02T10:09:00Z,27.8903,-94.0367,969.36,11133222 
TABS,ioos:station:wmo:42046:1,2003-04-02T10:39:00Z,27.8903,-94.0367,969.67,11133222 
TABS,ioos:station:wmo:42046:1,2003-04-02T11:09:00Z,27.8903,-94.0367,969.93,11133222 
TABS,ioos:station:wmo:42046:1,2003-04-02T11:39:00Z,27.8903,-94.0367,970.12,11133222 
TABS,ioos:station:wmo:42046:1,2003-04-02T12:09:00Z,27.8903,-94.0367,970.18,11133222 
TABS,ioos:station:wmo:42046:1,2003-04-02T12:39:00Z,27.8903,-94.0367,971.58,11133222 
TABS,ioos:station:wmo:42046:1,2003-04-02T13:09:00Z,27.8903,-94.0367,974.05,11133222 
TABS,ioos:station:wmo:42046:1,2003-04-02T13:39:00Z,27.8903,-94.0367,978.88,11133222 
TABS,ioos:station:wmo:42046:1,2003-04-02T14:09:00Z,27.8903,-94.0367,979.89,11133222 
TABS,ioos:station:wmo:42046:1,2003-04-02T14:39:00Z,27.8903,-94.0367,1001.98,11111222 
TABS,ioos:station:wmo:42046:1,2003-04-02T15:39:00Z,27.8903,-94.0367,1000.65,11111222 
TABS,ioos:station:wmo:42046:1,2003-04-02T16:09:00Z,27.8903,-94.0367,1004.14,11111222 
TABS,ioos:station:wmo:42046:1,2003-04-02T16:39:00Z,27.8903,-94.0367,1003.44,11111222 
TABS,ioos:station:wmo:42046:1,2003-04-02T17:09:00Z,27.8903,-94.0367,1000.14,11111222 
TABS,ioos:station:wmo:42046:1,2003-04-02T17:39:00Z,27.8903,-94.0367,998.87,11111222 
TABS,ioos:station:wmo:42046:1,2003-04-02T18:39:00Z,27.8903,-94.0367,995.57,11111222 
TABS,ioos:station:wmo:42046:1,2003-04-02T19:09:00Z,27.8903,-94.0367,996.52,11111222 
TABS,ioos:station:wmo:42046:1,2003-04-02T19:39:00Z,27.8903,-94.0367,995.57,11111222 
TABS,ioos:station:wmo:42046:1,2003-04-02T20:09:00Z,27.8903,-94.0367,994.37,11111222 
TABS,ioos:station:wmo:42046:1,2003-04-02T20:39:00Z,27.8903,-94.0367,997.67,11111222 
TABS,ioos:station:wmo:42046:1,2003-04-02T21:09:00Z,27.8903,-94.0367,997.22,11111222 
TABS,ioos:station:wmo:42046:1,2003-04-02T21:39:00Z,27.8903,-94.0367,997.79,11111222 
TABS,ioos:station:wmo:42046:1,2003-04-02T22:09:00Z,27.8903,-94.0367,987.26,11111222 
TABS,ioos:station:wmo:42046:1,2003-04-02T22:39:00Z,27.8903,-94.0367,985.73,11111222 
TABS,ioos:station:wmo:42046:1,2003-04-02T23:09:00Z,27.8903,-94.0367,980.91,11111222 
TABS,ioos:station:wmo:42046:1,2003-04-02T23:39:00Z,27.8903,-94.0367,977.35,11133222 
TABS,ioos:station:wmo:42046:1,2003-04-03T00:09:00Z,27.8903,-94.0367,973.93,11133222 
TABS,ioos:station:wmo:42046:1,2003-04-03T00:39:00Z,27.8903,-94.0367,972.47,11133222 
TABS,ioos:station:wmo:42046:1,2003-04-03T01:09:00Z,27.8903,-94.0367,971.83,11133222 
TABS,ioos:station:wmo:42046:1,2003-04-03T01:39:00Z,27.8903,-94.0367,971.77,11133222 
TABS,ioos:station:wmo:42046:1,2003-04-03T02:09:00Z,27.8903,-94.0367,971.51,11133222 
TABS,ioos:station:wmo:42046:1,2003-04-03T02:39:00Z,27.8903,-94.0367,971.45,11133222 
TABS,ioos:station:wmo:42046:1,2003-04-03T03:09:00Z,27.8903,-94.0367,971.51,11133222 
TABS,ioos:station:wmo:42046:1,2003-04-03T03:39:00Z,27.8903,-94.0367,971.45,11133222 
TABS,ioos:station:wmo:42046:1,2003-04-03T04:09:00Z,27.8903,-94.0367,971.32,11133222 
TABS,ioos:station:wmo:42046:1,2003-04-03T04:39:00Z,27.8903,-94.0367,971.83,11133222 
TABS,ioos:station:wmo:42046:1,2003-04-03T05:09:00Z,27.8903,-94.0367,972.21,11133222 
TABS,ioos:station:wmo:42046:1,2003-04-03T05:39:00Z,27.8903,-94.0367,972.02,11133222 
TABS,ioos:station:wmo:42046:1,2003-04-03T06:09:00Z,27.8903,-94.0367,971.51,11133222 
TABS,ioos:station:wmo:42046:1,2003-04-03T06:39:00Z,27.8903,-94.0367,971.2,11133222 
TABS,ioos:station:wmo:42046:1,2003-04-03T07:09:00Z,27.8903,-94.0367,971.07,11133222 
TABS,ioos:station:wmo:42046:1,2003-04-03T07:39:00Z,27.8903,-94.0367,971.01,11133222 
TABS,ioos:station:wmo:42046:1,2003-04-03T08:09:00Z,27.8903,-94.0367,970.94,11133222 
TABS,ioos:station:wmo:42046:1,2003-04-03T08:39:00Z,27.8903,-94.0367,970.88,11133222 
TABS,ioos:station:wmo:42046:1,2003-04-03T09:09:00Z,27.8903,-94.0367,970.75,11133222 
TABS,ioos:station:wmo:42046:1,2003-04-03T09:39:00Z,27.8903,-94.0367,970.56,11133222 
TABS,ioos:station:wmo:42046:1,2003-04-03T10:09:00Z,27.8903,-94.0367,970.43,11133222 
TABS,ioos:station:wmo:42046:1,2003-04-03T10:39:00Z,27.8903,-94.0367,970.37,11133222 
TABS,ioos:station:wmo:42046:1,2003-04-03T11:09:00Z,27.8903,-94.0367,970.31,11133222 
TABS,ioos:station:wmo:42046:1,2003-04-03T11:39:00Z,27.8903,-94.0367,970.24,11133222 
TABS,ioos:station:wmo:42046:1,2003-04-03T12:09:00Z,27.8903,-94.0367,970.5,11133222 
TABS,ioos:station:wmo:42046:1,2003-04-03T12:39:00Z,27.8903,-94.0367,971.58,11133222 
TABS,ioos:station:wmo:42046:1,2003-04-03T13:09:00Z,27.8903,-94.0367,973.54,11133222 
TABS,ioos:station:wmo:42046:1,2003-04-03T13:39:00Z,27.8903,-94.0367,984.15,11111222 
TABS,ioos:station:wmo:42046:1,2003-04-03T14:09:00Z,27.8903,-94.0367,994.37,11111222 
TABS,ioos:station:wmo:42046:1,2003-04-03T14:39:00Z,27.8903,-94.0367,991.95,11111222 
TABS,ioos:station:wmo:42046:1,2003-04-03T15:39:00Z,27.8903,-94.0367,1007.89,11111222 
TABS,ioos:station:wmo:42046:1,2003-04-03T16:09:00Z,27.8903,-94.0367,1003.51,11111222 
TABS,ioos:station:wmo:42046:1,2003-04-03T16:39:00Z,27.8903,-94.0367,1004.78,11111222 
TABS,ioos:station:wmo:42046:1,2003-04-03T17:09:00Z,27.8903,-94.0367,1005.09,11111222 
TABS,ioos:station:wmo:42046:1,2003-04-03T17:39:00Z,27.8903,-94.0367,1002.87,11111222 
TABS,ioos:station:wmo:42046:1,2003-04-03T18:39:00Z,27.8903,-94.0367,999.76,11111222 
TABS,ioos:station:wmo:42046:1,2003-04-03T19:09:00Z,27.8903,-94.0367,996.4,11111222 
TABS,ioos:station:wmo:42046:1,2003-04-03T19:39:00Z,27.8903,-94.0367,995.0,11111222 
TABS,ioos:station:wmo:42046:1,2003-04-03T20:09:00Z,27.8903,-94.0367,996.84,11111222 
TABS,ioos:station:wmo:42046:1,2003-04-03T20:39:00Z,27.8903,-94.0367,997.6,11111222 
TABS,ioos:station:wmo:42046:1,2003-04-03T21:09:00Z,27.8903,-94.0367,998.43,11111222 
TABS,ioos:station:wmo:42046:1,2003-04-03T21:39:00Z,27.8903,-94.0367,993.92,11111222 
TABS,ioos:station:wmo:42046:1,2003-04-03T22:09:00Z,27.8903,-94.0367,990.05,11111222 
TABS,ioos:station:wmo:42046:1,2003-04-03T22:39:00Z,27.8903,-94.0367,986.62,11111222 
TABS,ioos:station:wmo:42046:1,2003-04-03T23:09:00Z,27.8903,-94.0367,983.64,11111222 
TABS,ioos:station:wmo:42046:1,2003-04-03T23:39:00Z,27.8903,-94.0367,982.75,11111222 
TABS,ioos:station:wmo:42046:1,2003-04-04T00:09:00Z,27.8903,-94.0367,977.8,11133222 
TABS,ioos:station:wmo:42046:1,2003-04-04T00:39:00Z,27.8903,-94.0367,974.43,11133222 
TABS,ioos:station:wmo:42046:1,2003-04-04T01:09:00Z,27.8903,-94.0367,973.23,11133222 
TABS,ioos:station:wmo:42046:1,2003-04-04T01:39:00Z,27.8903,-94.0367,972.97,11133222 
TABS,ioos:station:wmo:42046:1,2003-04-04T02:09:00Z,27.8903,-94.0367,972.91,11133222 
TABS,ioos:station:wmo:42046:1,2003-04-04T02:39:00Z,27.8903,-94.0367,972.85,11133222 
TABS,ioos:station:wmo:42046:1,2003-04-04T03:09:00Z,27.8903,-94.0367,973.04,11133222 
TABS,ioos:station:wmo:42046:1,2003-04-04T03:39:00Z,27.8903,-94.0367,973.1,11133222 
TABS,ioos:station:wmo:42046:1,2003-04-04T04:09:00Z,27.8903,-94.0367,973.1,11133222 
TABS,ioos:station:wmo:42046:1,2003-04-04T04:39:00Z,27.8903,-94.0367,972.97,11133222 
TABS,ioos:station:wmo:42046:1,2003-04-04T05:09:00Z,27.8903,-94.0367,972.85,11133222 
TABS,ioos:station:wmo:42046:1,2003-04-04T05:39:00Z,27.8903,-94.0367,972.53,11133222 
TABS,ioos:station:wmo:42046:1,2003-04-04T06:09:00Z,27.8903,-94.0367,972.34,11133222 
TABS,ioos:station:wmo:42046:1,2003-04-04T06:39:00Z,27.8903,-94.0367,972.21,11133222 
TABS,ioos:station:wmo:42046:1,2003-04-04T07:09:00Z,27.8903,-94.0367,972.08,11133222 
TABS,ioos:station:wmo:42046:1,2003-04-04T07:39:00Z,27.8903,-94.0367,971.89,11133222 
TABS,ioos:station:wmo:42046:1,2003-04-04T08:09:00Z,27.8903,-94.0367,971.7,11133222 
TABS,ioos:station:wmo:42046:1,2003-04-04T08:39:00Z,27.8903,-94.0367,971.58,11133222 
TABS,ioos:station:wmo:42046:1,2003-04-04T09:09:00Z,27.8903,-94.0367,971.45,11133222 
TABS,ioos:station:wmo:42046:1,2003-04-04T09:39:00Z,27.8903,-94.0367,971.26,11133222 
TABS,ioos:station:wmo:42046:1,2003-04-04T10:09:00Z,27.8903,-94.0367,971.07,11133222 
TABS,ioos:station:wmo:42046:1,2003-04-04T10:39:00Z,27.8903,-94.0367,971.07,11133222 
TABS,ioos:station:wmo:42046:1,2003-04-04T11:09:00Z,27.8903,-94.0367,971.39,11133222 
TABS,ioos:station:wmo:42046:1,2003-04-04T11:39:00Z,27.8903,-94.0367,971.58,11133222 
TABS,ioos:station:wmo:42046:1,2003-04-04T12:09:00Z,27.8903,-94.0367,972.08,11133222 
TABS,ioos:station:wmo:42046:1,2003-04-04T12:39:00Z,27.8903,-94.0367,973.74,11133222 
TABS,ioos:station:wmo:42046:1,2003-04-04T13:09:00Z,27.8903,-94.0367,974.69,11133222 
TABS,ioos:station:wmo:42046:1,2003-04-04T13:39:00Z,27.8903,-94.0367,986.43,11111222 
TABS,ioos:station:wmo:42046:1,2003-04-04T14:09:00Z,27.8903,-94.0367,1000.46,11111222 
TABS,ioos:station:wmo:42046:1,2003-04-04T14:39:00Z,27.8903,-94.0367,986.3,11111222 
TABS,ioos:station:wmo:42046:1,2003-04-04T15:39:00Z,27.8903,-94.0367,1005.22,11111222 
TABS,ioos:station:wmo:42046:1,2003-04-04T16:09:00Z,27.8903,-94.0367,1004.27,11111222 
TABS,ioos:station:wmo:42046:1,2003-04-04T16:39:00Z,27.8903,-94.0367,998.43,11111222 
TABS,ioos:station:wmo:42046:1,2003-04-04T17:09:00Z,27.8903,-94.0367,1006.24,11111222 
TABS,ioos:station:wmo:42046:1,2003-04-04T17:39:00Z,27.8903,-94.0367,999.76,11111222 
TABS,ioos:station:wmo:42046:1,2003-04-04T18:39:00Z,27.8903,-94.0367,1000.08,11111222 
TABS,ioos:station:wmo:42046:1,2003-04-04T19:09:00Z,27.8903,-94.0367,997.22,11111222 
TABS,ioos:station:wmo:42046:1,2003-04-04T19:39:00Z,27.8903,-94.0367,994.3,11111222 
TABS,ioos:station:wmo:42046:1,2003-04-04T20:09:00Z,27.8903,-94.0367,994.37,11111222 
TABS,ioos:station:wmo:42046:1,2003-04-04T20:39:00Z,27.8903,-94.0367,989.1,11111222 
TABS,ioos:station:wmo:42046:1,2003-04-04T21:09:00Z,27.8903,-94.0367,994.81,11111222 
TABS,ioos:station:wmo:42046:1,2003-04-04T21:39:00Z,27.8903,-94.0367,991.13,11111222 
TABS,ioos:station:wmo:42046:1,2003-04-04T22:09:00Z,27.8903,-94.0367,985.86,11111222 
TABS,ioos:station:wmo:42046:1,2003-04-04T22:39:00Z,27.8903,-94.0367,985.35,11111222 
TABS,ioos:station:wmo:42046:1,2003-04-04T23:09:00Z,27.8903,-94.0367,980.91,11111222 
TABS,ioos:station:wmo:42046:1,2003-04-04T23:39:00Z,27.8903,-94.0367,979.26,11133222 
TABS,ioos:station:wmo:42046:1,2003-04-05T00:09:00Z,27.8903,-94.0367,976.59,11133222 
TABS,ioos:station:wmo:42046:1,2003-04-05T00:39:00Z,27.8903,-94.0367,975.07,11133222 
TABS,ioos:station:wmo:42046:1,2003-04-05T01:09:00Z,27.8903,-94.0367,974.69,11133222 
TABS,ioos:station:wmo:42046:1,2003-04-05T01:39:00Z,27.8903,-94.0367,974.56,11133222 
TABS,ioos:station:wmo:42046:1,2003-04-05T02:09:00Z,27.8903,-94.0367,974.24,11133222 
TABS,ioos:station:wmo:42046:1,2003-04-05T02:39:00Z,27.8903,-94.0367,974.12,11133222 
TABS,ioos:station:wmo:42046:1,2003-04-05T03:09:00Z,27.8903,-94.0367,973.99,11133222 
TABS,ioos:station:wmo:42046:1,2003-04-05T03:39:00Z,27.8903,-94.0367,974.05,11133222 
TABS,ioos:station:wmo:42046:1,2003-04-05T04:09:00Z,27.8903,-94.0367,973.93,11133222 
TABS,ioos:station:wmo:42046:1,2003-04-05T04:39:00Z,27.8903,-94.0367,973.86,11133222 
TABS,ioos:station:wmo:42046:1,2003-04-05T05:09:00Z,27.8903,-94.0367,973.67,11133222 
TABS,ioos:station:wmo:42046:1,2003-04-05T05:39:00Z,27.8903,-94.0367,973.54,11133222 
TABS,ioos:station:wmo:42046:1,2003-04-05T06:09:00Z,27.8903,-94.0367,973.29,11133222 
TABS,ioos:station:wmo:42046:1,2003-04-05T06:39:00Z,27.8903,-94.0367,973.23,11133222 
TABS,ioos:station:wmo:42046:1,2003-04-05T07:09:00Z,27.8903,-94.0367,973.35,11133222 
TABS,ioos:station:wmo:42046:1,2003-04-05T07:39:00Z,27.8903,-94.0367,973.54,11133222 
TABS,ioos:station:wmo:42046:1,2003-04-05T08:09:00Z,27.8903,-94.0367,973.86,11133222 
TABS,ioos:station:wmo:42046:1,2003-04-05T08:39:00Z,27.8903,-94.0367,973.8,11133222 
TABS,ioos:station:wmo:42046:1,2003-04-05T09:09:00Z,27.8903,-94.0367,973.99,11133222 
TABS,ioos:station:wmo:42046:1,2003-04-05T09:39:00Z,27.8903,-94.0367,973.93,11133222 
TABS,ioos:station:wmo:42046:1,2003-04-05T10:09:00Z,27.8903,-94.0367,973.86,11133222 
TABS,ioos:station:wmo:42046:1,2003-04-05T10:39:00Z,27.8903,-94.0367,973.86,11133222 
TABS,ioos:station:wmo:42046:1,2003-04-05T11:09:00Z,27.8903,-94.0367,973.86,11133222 
TABS,ioos:station:wmo:42046:1,2003-04-05T11:39:00Z,27.8903,-94.0367,973.86,11133222 
TABS,ioos:station:wmo:42046:1,2003-04-05T12:09:00Z,27.8903,-94.0367,973.86,11133222 
TABS,ioos:station:wmo:42046:1,2003-04-05T12:39:00Z,27.8903,-94.0367,974.37,11133222 
TABS,ioos:station:wmo:42046:1,2003-04-05T13:09:00Z,27.8903,-94.0367,974.62,11133222 
TABS,ioos:station:wmo:42046:1,2003-04-05T13:39:00Z,27.8903,-94.0367,975.83,11133222 
TABS,ioos:station:wmo:42046:1,2003-04-05T14:09:00Z,27.8903,-94.0367,976.4,11133222 
TABS,ioos:station:wmo:42046:1,2003-04-05T14:39:00Z,27.8903,-94.0367,981.48,11111222 
TABS,ioos:station:wmo:42046:1,2003-04-05T15:09:00Z,27.8903,-94.0367,992.59,11111222 
TABS,ioos:station:wmo:42046:1,2003-04-05T15:39:00Z,27.8903,-94.0367,1019.25,11111222 
TABS,ioos:station:wmo:42046:1,2003-04-05T16:09:00Z,27.8903,-94.0367,1022.36,11111222 
TABS,ioos:station:wmo:42046:1,2003-04-05T16:39:00Z,27.8903,-94.0367,1017.09,11111222 
TABS,ioos:station:wmo:42046:1,2003-04-05T17:09:00Z,27.8903,-94.0367,1014.04,11111222 
TABS,ioos:station:wmo:42046:1,2003-04-05T17:39:00Z,27.8903,-94.0367,1000.71,11111222 
TABS,ioos:station:wmo:42046:1,2003-04-05T18:09:00Z,27.8903,-94.0367,1006.24,11111222 
TABS,ioos:station:wmo:42046:1,2003-04-05T18:39:00Z,27.8903,-94.0367,1004.14,11111222 
TABS,ioos:station:wmo:42046:1,2003-04-05T19:09:00Z,27.8903,-94.0367,1004.01,11111222 
TABS,ioos:station:wmo:42046:1,2003-04-05T19:39:00Z,27.8903,-94.0367,1001.67,11111222 
TABS,ioos:station:wmo:42046:1,2003-04-05T20:09:00Z,27.8903,-94.0367,992.52,11111222 
TABS,ioos:station:wmo:42046:1,2003-04-05T20:39:00Z,27.8903,-94.0367,989.16,11111222 
TABS,ioos:station:wmo:42046:1,2003-04-05T21:09:00Z,27.8903,-94.0367,985.99,11111222 
TABS,ioos:station:wmo:42046:1,2003-04-05T21:39:00Z,27.8903,-94.0367,983.89,11111222 
TABS,ioos:station:wmo:42046:1,2003-04-05T22:09:00Z,27.8903,-94.0367,980.59,11111222 
TABS,ioos:station:wmo:42046:1,2003-04-05T22:39:00Z,27.8903,-94.0367,979.13,11133222 
TABS,ioos:station:wmo:42046:1,2003-04-05T23:09:00Z,27.8903,-94.0367,977.92,11133222 
TABS,ioos:station:wmo:42046:1,2003-04-05T23:39:00Z,27.8903,-94.0367,977.1,11133222 
TABS,ioos:station:wmo:42046:1,2003-04-06T00:09:00Z,27.8903,-94.0367,976.21,11133222 
TABS,ioos:station:wmo:42046:1,2003-04-06T00:39:00Z,27.8903,-94.0367,975.64,11133222 
TABS,ioos:station:wmo:42046:1,2003-04-06T01:09:00Z,27.8903,-94.0367,975.45,11133222 
TABS,ioos:station:wmo:42046:1,2003-04-06T01:39:00Z,27.8903,-94.0367,975.32,11133222 
TABS,ioos:station:wmo:42046:1,2003-04-06T02:09:00Z,27.8903,-94.0367,975.13,11133222 
TABS,ioos:station:wmo:42046:1,2003-04-06T02:39:00Z,27.8903,-94.0367,975.32,11133222 
TABS,ioos:station:wmo:42046:1,2003-04-06T03:09:00Z,27.8903,-94.0367,975.45,11133222 
TABS,ioos:station:wmo:42046:1,2003-04-06T03:39:00Z,27.8903,-94.0367,975.32,11133222 
TABS,ioos:station:wmo:42046:1,2003-04-06T04:09:00Z,27.8903,-94.0367,975.2,11133222 
TABS,ioos:station:wmo:42046:1,2003-04-06T04:39:00Z,27.8903,-94.0367,975.13,11133222 
TABS,ioos:station:wmo:42046:1,2003-04-06T05:09:00Z,27.8903,-94.0367,975.2,11133222 
TABS,ioos:station:wmo:42046:1,2003-04-06T05:39:00Z,27.8903,-94.0367,975.0,11133222 
TABS,ioos:station:wmo:42046:1,2003-04-06T06:09:00Z,27.8903,-94.0367,974.88,11133222 
TABS,ioos:station:wmo:42046:1,2003-04-06T06:39:00Z,27.8903,-94.0367,974.81,11133222 
TABS,ioos:station:wmo:42046:1,2003-04-06T07:09:00Z,27.8903,-94.0367,974.69,11133222 
TABS,ioos:station:wmo:42046:1,2003-04-06T07:39:00Z,27.8903,-94.0367,974.69,11133222 
TABS,ioos:station:wmo:42046:1,2003-04-06T08:09:00Z,27.8903,-94.0367,974.75,11133222 
TABS,ioos:station:wmo:42046:1,2003-04-06T08:39:00Z,27.8903,-94.0367,974.62,11133222 
TABS,ioos:station:wmo:42046:1,2003-04-06T09:09:00Z,27.8903,-94.0367,974.81,11133222 
TABS,ioos:station:wmo:42046:1,2003-04-06T09:39:00Z,27.8903,-94.0367,974.94,11133222 
TABS,ioos:station:wmo:42046:1,2003-04-06T10:09:00Z,27.8903,-94.0367,974.81,11133222 
TABS,ioos:station:wmo:42046:1,2003-04-06T10:39:00Z,27.8903,-94.0367,975.58,11133222 
TABS,ioos:station:wmo:42046:1,2003-04-06T11:09:00Z,27.8903,-94.0367,976.02,11133222 
TABS,ioos:station:wmo:42046:1,2003-04-06T11:39:00Z,27.8903,-94.0367,976.34,11133222 
TABS,ioos:station:wmo:42046:1,2003-04-06T12:09:00Z,27.8903,-94.0367,976.46,11133222 
TABS,ioos:station:wmo:42046:1,2003-04-06T12:39:00Z,27.8903,-94.0367,978.69,11133222 
TABS,ioos:station:wmo:42046:1,2003-04-06T13:09:00Z,27.8903,-94.0367,980.91,11111222 
TABS,ioos:station:wmo:42046:1,2003-04-06T13:39:00Z,27.8903,-94.0367,978.75,11133222 
TABS,ioos:station:wmo:42046:1,2003-04-06T14:09:00Z,27.8903,-94.0367,980.02,11111222 
TABS,ioos:station:wmo:42046:1,2003-04-06T14:39:00Z,27.8903,-94.0367,981.23,11111222 
TABS,ioos:station:wmo:42046:1,2003-04-06T15:09:00Z,27.8903,-94.0367,985.92,11111222 
TABS,ioos:station:wmo:42046:1,2003-04-06T15:39:00Z,27.8903,-94.0367,985.54,11111222 
TABS,ioos:station:wmo:42046:1,2003-04-06T16:09:00Z,27.8903,-94.0367,986.75,11111222 
TABS,ioos:station:wmo:42046:1,2003-04-06T16:39:00Z,27.8903,-94.0367,989.73,11111222 
TABS,ioos:station:wmo:42046:1,2003-04-06T17:09:00Z,27.8903,-94.0367,998.05,11111222 
TABS,ioos:station:wmo:42046:1,2003-04-06T17:39:00Z,27.8903,-94.0367,996.4,11111222 
TABS,ioos:station:wmo:42046:1,2003-04-06T18:09:00Z,27.8903,-94.0367,997.22,11111222 
TABS,ioos:station:wmo:42046:1,2003-04-06T18:39:00Z,27.8903,-94.0367,1003.0,11111222 
TABS,ioos:station:wmo:42046:1,2003-04-06T19:09:00Z,27.8903,-94.0367,1005.41,11111222 
TABS,ioos:station:wmo:42046:1,2003-04-06T19:39:00Z,27.8903,-94.0367,1001.35,11111222 
TABS,ioos:station:wmo:42046:1,2003-04-06T20:09:00Z,27.8903,-94.0367,1001.35,11111222 
TABS,ioos:station:wmo:42046:1,2003-04-06T20:39:00Z,27.8903,-94.0367,997.73,11111222 
TABS,ioos:station:wmo:42046:1,2003-04-06T21:09:00Z,27.8903,-94.0367,1000.08,11111222 
TABS,ioos:station:wmo:42046:1,2003-04-06T21:39:00Z,27.8903,-94.0367,997.6,11111222 
TABS,ioos:station:wmo:42046:1,2003-04-06T22:09:00Z,27.8903,-94.0367,997.73,11111222 
TABS,ioos:station:wmo:42046:1,2003-04-06T22:39:00Z,27.8903,-94.0367,989.22,11111222 
TABS,ioos:station:wmo:42046:1,2003-04-06T23:09:00Z,27.8903,-94.0367,993.79,11111222 
TABS,ioos:station:wmo:42046:1,2003-04-06T23:39:00Z,27.8903,-94.0367,982.56,11111222 
TABS,ioos:station:wmo:42046:1,2003-04-07T00:09:00Z,27.8903,-94.0367,979.58,11133222 